Location: Cactus School
(34.5700°N, 118.0931°W)
Time: 13:00:39
(UTC-07:00)

Courier 1B Rocket - All Passes

Search period start: 12 April 2024 00:00
Search period end: 22 April 2024 00:00
Orbit: 920 x 1201 km, 28.2° (Epoch: 11 April)

Date Brightness Start Highest point End Pass type
(mag) Time Alt. Az. Time Alt. Az. Time Alt. Az.
12 Apr - 06:14:16 10° SSW 06:18:36 17° SSE 06:22:46 10° ESE daylight
12 Apr - 08:05:23 10° SW 08:11:27 37° SSE 08:17:14 10° E daylight
12 Apr - 09:58:16 10° WSW 10:04:28 49° S 10:10:26 10° ESE daylight
12 Apr - 11:51:42 10° W 11:57:25 37° SSW 12:03:05 10° SE daylight
12 Apr - 13:46:13 10° WSW 13:50:07 17° SSW 13:54:03 10° SSE daylight
13 Apr - 05:14:53 10° S 05:17:37 12° SSE 05:20:17 10° SE visible
13 Apr - 07:04:32 10° SW 07:10:28 31° SSE 07:16:03 10° ESE daylight
13 Apr - 08:57:07 10° WSW 09:03:28 47° S 09:09:29 10° ESE daylight
13 Apr - 10:50:28 10° W 10:56:28 43° S 11:02:19 10° ESE daylight
13 Apr - 12:44:27 10° WSW 12:49:15 23° SSW 12:54:04 10° SSE daylight
14 Apr - 06:03:53 10° SSW 06:09:27 25° SSE 06:14:43 10° ESE daylight
14 Apr - 07:56:00 10° WSW 08:02:25 44° S 08:08:29 10° E daylight
14 Apr - 09:49:14 10° WSW 09:55:30 48° S 10:01:29 10° ESE daylight
14 Apr - 11:42:57 10° WSW 11:48:23 30° SSW 11:53:43 10° SE daylight
14 Apr - 13:39:14 10° SW 13:40:58 11° SSW 13:42:41 10° SSW daylight
15 Apr - 05:03:35 10° SSW 05:08:25 19° SSE 05:13:04 10° ESE visible
15 Apr - 06:54:56 10° SW 07:01:23 38° SSE 07:07:25 10° E daylight
15 Apr - 08:47:59 10° WSW 08:54:29 50° S 09:00:36 10° ESE daylight
15 Apr - 10:41:35 10° W 10:47:28 37° SSW 10:53:09 10° SE daylight
15 Apr - 12:36:19 10° WSW 12:40:08 17° SSW 12:43:55 10° SSE daylight
16 Apr - 04:03:56 10° S 04:07:23 14° SSE 04:10:45 10° ESE visible
16 Apr - 05:53:59 10° SW 06:00:19 32° SSE 06:06:15 10° ESE visible
16 Apr - 07:46:44 10° WSW 07:53:25 49° S 07:59:39 10° ESE daylight
16 Apr - 09:40:14 10° W 09:46:30 44° S 09:52:27 10° ESE daylight
16 Apr - 11:34:24 10° WSW 11:39:17 23° SSW 11:44:04 10° SSE daylight
17 Apr - 04:53:16 10° SSW 04:59:14 26° SSE 05:04:54 10° ESE visible
17 Apr - 06:45:31 10° WSW 06:52:19 45° S 06:58:39 10° E daylight
17 Apr - 08:38:54 10° WSW 08:45:29 49° S 08:51:39 10° ESE daylight
17 Apr - 10:32:47 10° WSW 10:38:24 30° SSW 10:43:48 10° SE daylight
17 Apr - 12:29:24 10° SW 12:30:57 11° SSW 12:32:30 10° SSW daylight
18 Apr - 03:52:52 10° SSW 03:58:09 20° SSE 04:03:14 10° ESE visible
18 Apr - 05:44:23 10° SW 05:51:12 40° SSE 05:57:34 10° E visible
18 Apr - 07:37:34 10° WSW 07:44:24 51° S 07:50:46 10° ESE daylight
18 Apr - 09:31:18 10° W 09:37:28 38° SSW 09:43:18 10° SE daylight
18 Apr - 11:26:12 10° WSW 11:30:07 17° SSW 11:33:58 10° S daylight
19 Apr - 02:53:05 10° S 02:57:05 15° SSE 03:00:59 10° ESE visible
19 Apr - 04:43:24 10° SW 04:50:03 34° SSE 04:56:22 10° E visible
19 Apr - 06:36:14 10° WSW 06:43:16 50° S 06:49:49 10° ESE daylight
19 Apr - 08:29:51 10° W 08:36:27 45° S 08:42:37 10° ESE daylight
19 Apr - 10:24:10 10° WSW 10:29:16 24° SSW 10:34:11 10° SSE daylight
20 Apr - 03:42:38 10° SSW 03:48:55 28° SSE 03:54:57 10° ESE visible
20 Apr - 05:34:57 10° WSW 05:42:06 47° S 05:48:46 10° E visible
20 Apr - 07:28:26 10° WSW 07:35:22 50° S 07:41:49 10° ESE daylight
20 Apr - 09:22:27 10° W 09:28:21 31° SSW 09:33:58 10° SE daylight
20 Apr - 11:19:09 10° SW 11:20:54 11° SSW 11:22:39 10° SSW daylight
21 Apr - 02:42:12 10° SSW 02:47:48 22° SSE 02:53:14 10° ESE visible
21 Apr - 04:33:48 10° SW 04:40:54 42° SSE 04:47:38 10° E visible
21 Apr - 06:27:02 10° WSW 06:34:13 52° S 06:40:54 10° ESE daylight
21 Apr - 08:20:52 10° W 08:27:22 39° SSW 08:33:27 10° SE daylight
21 Apr - 10:15:54 10° WSW 10:20:04 17° SSW 10:24:07 10° SSE daylight
